GEFSNGP_500_meanwind_252.txt.gz
Wind_Speed
10 9 9 9 10 9 8 8 8 8 8 8 7 6 6 6 6 6 7 7 7 6 6 7 7 7 7 8 7 7 7 7 8 8 8 7 7 7 7 8 9 9 9 9
11 11 11 11 11 10 9 9 9 8 8 7 7 6 6 6 6 6 6 6 6 7 7 7 8 8 7 7 7 7 8 8 7 6 7 7 7 7 7 8 8 9 9 9
12 12 13 12 12 12 11 9 8 8 8 7 7 7 6 7 6 6 6 7 6 6 7 7 7 8 7 6 6 7 8 6 5 6 6 6 7 7 8 8 9 9 10 10
13 13 13 13 12 12 11 10 9 8 8 8 7 7 7 7 7 6 7 7 7 7 7 7 7 7 7 7 6 7 7 6 6 6 6 7 8 8 8 8 9 9 10 11
14 14 15 14 13 12 11 10 9 9 8 8 8 8 8 8 8 7 7 8 7 8 7 7 7 8 8 7 7 6 6 6 6 7 7 8 9 9 9 8 9 9 10 11
15 15 15 14 13 11 11 11 10 10 9 9 8 8 8 8 8 8 8 8 8 8 8 8 8 8 8 8 8 7 7 6 7 7 8 9 10 10 9 9 10 10 12 12
15 15 15 13 13 12 12 12 11 11 11 10 10 10 9 9 9 8 8 8 8 8 8 8 8 9 9 9 8 8 7 8 8 9 9 9 10 10 11 11 11 12 12 12
16 16 16 14 14 13 13 13 13 13 12 12 11 11 11 10 10 9 9 9 9 8 8 8 9 9 9 9 8 8 8 8 9 10 10 10 10 11 12 12 13 13 13 12
17 17 16 15 15 14 14 13 13 13 13 12 12 12 12 12 11 10 10 10 9 8 9 9 9 9 9 8 8 8 9 9 10 10 11 11 11 12 13 13 13 13 13 13
17 17 17 16 15 15 14 14 14 14 14 14 14 13 13 12 12 11 10 10 10 9 9 9 9 9 9 8 9 9 10 10 10 11 11 11 12 13 13 13 12 12 12 12
18 18 17 17 17 16 15 15 15 14 14 15 15 14 14 13 12 12 11 11 10 9 9 10 10 9 9 9 9 9 10 10 10 10 10 11 12 12 12 12 11 11 11 12
18 18 18 17 17 17 16 16 16 16 15 15 16 16 15 15 14 13 12 12 11 10 10 11 11 10 10 10 10 10 11 11 10 11 11 12 12 12 12 11 11 11 11 12
18 18 18 18 18 17 16 16 15 15 15 15 16 16 16 16 16 15 14 13 12 12 12 12 11 11 11 11 11 11 11 11 11 11 12 12 12 13 12 11 11 11 12 12
19 19 19 18 17 17 17 16 16 16 16 15 15 16 16 16 17 17 16 15 14 14 13 13 12 12 12 12 12 11 12 12 12 11 12 12 12 12 12 12 12 12 12 13
21 20 20 20 19 19 19 18 18 17 17 17 17 17 17 17 17 16 17 17 16 15 15 14 13 13 13 13 13 13 12 12 12 11 11 12 12 12 12 12 12 13 13 14
22 22 22 22 21 21 20 20 19 19 19 19 19 19 18 18 18 17 17 17 17 16 16 16 14 13 13 13 13 13 12 12 12 11 11 12 12 12 12 13 13 13 14 15
24 23 23 23 23 23 22 21 21 21 21 21 21 21 20 20 19 19 18 18 18 17 17 17 16 14 13 13 13 13 13 13 12 12 12 12 12 12 13 13 13 14 14 15
25 25 24 24 24 24 24 23 23 23 22 22 22 22 21 21 20 20 19 18 19 18 18 18 17 16 15 14 13 13 13 13 13 12 12 12 12 13 13 13 14 14 15 15
26 26 26 25 25 24 24 24 24 24 24 24 24 24 23 23 22 21 20 20 20 20 20 19 19 18 17 16 15 14 14 14 14 14 13 13 13 13 13 13 14 15 15 15
25 25 25 25 25 25 25 25 25 25 25 25 25 24 24 24 24 23 23 22 22 22 21 21 20 19 18 18 17 17 16 16 16 15 15 14 13 13 13 13 14 15 16 16
26 25 25 25 25 25 25 25 24 24 24 24 24 25 24 25 25 25 24 24 24 24 23 22 21 20 19 19 19 18 18 17 17 16 16 15 15 15 15 15 15 15 16 17
26 25 26 26 26 26 26 25 25 25 24 25 24 24 24 25 25 25 24 24 24 25 24 23 23 22 21 20 20 19 19 18 17 17 17 16 16 16 16 16 16 16 17 18
26 26 26 26 26 26 26 26 26 25 25 25 25 24 24 24 25 25 24 24 24 25 25 25 24 23 22 21 20 20 19 19 18 17 17 17 17 17 17 17 17 17 18 18
26 26 27 27 26 26 26 26 26 25 26 25 25 25 24 24 25 25 24 24 24 24 25 25 24 24 23 22 21 20 20 19 19 19 19 18 18 18 18 18 17 18 18 18
27 27 27 27 26 26 26 25 25 25 25 24 24 24 24 24 24 24 24 24 24 24 23 23 23 23 23 22 21 21 21 20 20 20 20 20 19 19 19 18 18 19 19 19
27 27 26 26 26 26 25 24 24 24 23 23 23 23 23 23 23 23 24 24 24 23 23 23 23 23 23 23 22 22 21 21 21 21 21 21 21 20 19 19 19 19 20 20
27 26 26 25 25 25 24 23 23 23 23 22 22 22 23 23 23 23 23 24 23 23 23 22 22 23 23 23 23 23 23 23 23 22 22 22 22 22 22 22 22 22 21 22

GEFSNGP_500_meanwind_258.txt.gz
Wind_Speed
11 11 10 11 11 10 10 11 11 11 12 12 11 12 12 10 10 9 9 9 8 8 7 7 6 7 7 8 8 9 10 10 11 11 11 12 13 13 12 13 13 13 13 13
12 12 11 11 12 12 11 10 11 12 13 12 11 11 10 10 9 9 9 8 8 8 7 7 7 7 8 8 9 10 10 10 11 11 12 12 12 12 12 13 13 13 13 13
14 13 13 13 13 13 13 12 13 13 13 12 11 11 11 10 10 9 9 8 8 8 7 7 7 8 8 9 9 10 11 11 11 12 12 12 13 12 13 13 13 13 13 12
14 14 15 15 14 14 14 14 14 13 12 11 12 12 11 10 9 9 9 8 8 8 8 8 8 9 9 9 10 11 11 11 11 12 12 12 12 12 13 13 12 13 13 13
15 15 15 16 16 15 14 15 14 14 13 13 13 13 12 11 10 10 9 9 9 9 9 9 9 10 10 10 10 11 11 11 11 11 11 12 12 12 12 13 13 13 13 12
17 17 17 16 16 15 16 16 15 14 14 14 14 14 13 12 12 11 10 9 10 9 9 10 10 10 10 10 10 11 11 11 11 11 11 12 12 12 12 12 13 13 12 11
18 18 18 18 17 16 16 15 14 15 14 14 14 14 14 14 13 11 11 11 11 11 11 11 10 11 11 11 11 11 11 11 11 11 12 12 12 12 12 12 12 12 11 11
20 19 19 19 18 17 17 16 15 16 15 15 15 14 14 13 13 13 12 12 12 11 11 11 11 11 12 12 11 11 11 12 12 12 12 12 12 12 12 13 13 13 13 13
21 21 20 19 20 19 17 17 17 16 17 16 16 15 15 15 14 13 13 13 13 12 12 12 12 12 12 12 12 11 12 12 12 12 12 12 12 13 14 14 14 14 14 14
22 21 20 20 19 18 18 18 18 17 17 18 18 17 17 16 15 14 14 14 14 14 13 13 13 12 13 13 12 12 12 12 12 12 12 13 13 14 14 14 14 14 14 14
23 20 20 20 20 19 19 19 19 19 18 18 19 19 19 18 17 17 16 16 15 15 15 15 14 14 13 13 12 12 12 12 12 12 13 13 13 13 14 13 13 14 14 14
24 23 23 22 21 21 20 20 20 19 20 19 19 19 19 19 19 18 17 17 17 17 16 16 15 14 13 13 13 12 12 12 12 13 13 13 13 13 13 13 13 13 14 14
25 25 24 24 23 22 21 21 21 21 20 21 20 19 19 19 19 19 18 18 18 17 16 16 15 15 14 14 14 14 13 13 13 13 13 13 13 13 13 12 13 14 13 13
25 25 25 24 24 23 22 22 22 22 22 22 21 20 20 19 19 19 19 19 18 17 16 16 16 16 15 15 15 15 14 14 14 14 13 13 13 13 13 12 12 13 13 13
26 26 25 25 24 24 23 23 22 22 22 22 22 21 21 20 20 20 20 19 18 17 17 17 16 16 16 16 15 15 15 14 14 13 13 13 13 13 13 13 13 13 13 13
27 27 26 25 25 25 25 24 24 23 23 23 23 23 22 22 22 21 20 19 19 19 18 18 17 17 17 16 16 16 15 15 14 14 14 14 14 14 14 13 14 14 13 13
27 27 26 26 25 25 26 26 25 25 24 24 23 23 23 24 23 22 22 22 21 21 20 19 19 18 18 18 17 16 16 16 16 16 15 15 15 14 14 14 14 14 14 13
28 28 27 26 26 25 25 26 25 25 25 24 24 23 24 24 24 23 23 24 23 22 21 21 20 19 19 18 17 17 17 17 17 17 16 15 15 15 15 15 15 15 14 14
30 29 29 28 28 27 27 27 25 25 25 25 24 24 24 24 24 24 25 25 24 23 22 22 21 21 21 19 19 19 18 18 17 17 16 15 16 16 16 16 15 15 15 15
29 29 28 28 28 28 27 27 27 27 26 25 25 25 25 25 25 25 25 25 25 24 24 24 23 23 22 21 20 20 20 19 19 19 18 17 17 16 16 16 15 15 15 15
27 27 27 28 28 27 27 27 27 27 26 25 25 25 25 25 25 25 25 26 26 25 25 25 24 24 23 23 22 22 21 21 21 20 19 19 18 17 16 16 16 17 17 17
28 27 27 27 27 26 27 27 27 27 26 26 26 26 25 25 25 25 25 26 26 26 25 25 25 25 24 24 23 23 22 22 22 21 20 19 19 18 18 17 17 18 18 18
28 28 28 27 26 26 27 27 27 26 26 26 26 26 26 26 26 26 26 26 26 26 26 25 25 25 25 25 24 24 23 22 22 21 21 21 20 19 19 18 18 19 19 19
29 29 29 28 27 27 27 26 26 26 26 26 26 26 27 26 26 27 26 25 24 25 26 25 24 25 25 26 25 24 24 23 23 22 22 21 21 20 20 20 20 20 20 20
28 28 28 28 27 27 27 26 26 26 26 26 25 25 25 25 25 25 25 24 24 25 25 25 25 25 25 25 26 25 24 24 23 23 23 22 22 22 22 22 22 22 21 21
28 28 27 27 26 26 26 25 25 25 25 25 24 25 24 24 25 24 24 24 24 24 24 25 26 25 25 25 25 24 24 24 24 24 24 23 23 23 22 22 23 23 23 22
27 27 26 26 26 25 25 24 24 25 25 25 24 25 25 25 25 24 24 24 24 24 24 24 24 25 25 25 24 24 24 25 25 25 24 24 24 24 24 24 24 24 24 24

GEFSNGP_500_meanwind_264.txt.gz
Wind_Speed
14 14 14 13 13 14 14 14 13 12 11 10 10 10 10 10 9 9 7 7 7 7 7 6 6 6 6 5 5 6 7 7 8 9 10 10 10 10 11 10 11 11 12 11
15 15 15 14 14 14 14 13 12 11 12 11 11 10 11 10 9 8 7 6 7 8 7 7 6 6 7 6 6 7 7 8 9 10 10 10 10 11 11 11 11 11 11 11
16 15 16 15 14 13 13 12 12 11 11 12 11 10 11 11 10 9 7 7 8 8 7 7 7 7 7 8 9 9 9 9 10 10 11 11 11 11 11 11 12 11 11 11
18 17 16 15 14 14 13 13 13 13 13 11 11 11 10 10 10 9 8 8 9 9 8 8 8 8 9 10 10 10 10 11 11 11 11 11 11 11 11 12 12 11 11 11
18 18 17 16 15 15 14 14 13 14 14 13 13 12 11 10 10 10 10 10 10 10 9 9 10 10 10 10 10 10 11 12 12 12 12 12 12 12 12 12 11 11 11 11
20 19 18 17 17 16 16 15 14 15 15 16 15 15 13 12 11 11 10 10 10 10 10 11 11 11 11 11 11 11 11 12 12 12 12 12 12 11 11 11 11 11 11 11
21 21 20 19 19 17 17 17 17 17 16 15 15 14 14 14 13 12 12 11 11 11 11 11 11 11 11 11 12 12 12 12 11 11 11 11 11 11 11 11 11 10 10 11
20 21 21 20 20 19 19 18 17 16 16 15 15 14 14 14 13 13 13 13 13 13 13 12 12 12 12 13 13 13 13 13 12 12 12 11 11 11 11 11 10 10 10 11
21 21 21 21 20 19 19 19 18 17 16 16 16 15 14 14 14 13 14 14 15 15 14 14 14 14 13 13 13 13 14 13 12 12 12 11 11 11 11 10 10 9 10 10
23 22 22 22 21 20 20 20 19 18 18 18 18 17 16 15 15 15 15 15 16 16 15 15 14 14 14 14 14 14 14 13 13 13 13 12 11 11 10 10 9 9 10 10
24 23 23 23 21 20 20 19 19 18 18 19 19 19 18 17 17 16 16 17 16 16 16 15 15 15 15 15 15 15 14 14 13 13 13 12 11 10 10 10 9 10 10 11
25 24 24 23 23 22 21 20 19 19 19 18 18 19 19 19 18 18 17 17 18 17 16 15 16 16 16 16 15 15 14 14 13 12 13 12 11 10 10 10 10 10 11 11
26 25 25 24 24 23 22 21 21 20 19 18 18 19 19 19 20 20 18 18 19 18 16 17 17 17 16 16 16 15 15 14 13 12 12 12 12 11 11 11 11 11 11 11
26 26 26 25 24 23 23 23 23 22 21 20 20 19 19 20 20 20 20 20 20 20 19 18 17 18 17 17 16 16 15 15 15 14 13 13 13 12 12 11 11 11 11 11
26 26 26 25 25 24 24 24 23 23 22 21 21 21 21 22 22 22 22 22 22 21 20 20 19 18 18 17 17 17 17 16 15 15 14 14 14 13 12 12 12 12 12 12
26 27 27 26 26 25 25 25 24 23 23 23 22 21 21 22 22 22 22 22 23 23 22 21 20 19 19 18 18 18 17 17 16 15 16 15 15 15 14 14 14 14 13 13
26 26 27 27 27 27 27 26 26 26 26 25 25 24 23 22 22 22 22 21 22 22 21 21 21 20 20 19 19 19 19 18 17 17 17 17 16 16 16 16 16 15 15 14
27 27 27 27 27 27 27 27 27 27 26 26 25 25 24 23 23 23 23 22 22 22 22 22 22 21 21 20 20 20 20 20 19 19 18 18 17 17 17 16 16 17 16 15
25 25 25 25 26 26 27 27 27 27 27 26 26 25 24 24 24 24 24 24 23 23 23 23 23 23 22 21 21 21 20 20 19 19 18 18 18 17 17 16 16 16 16 16
24 23 25 25 26 26 26 26 27 26 26 25 26 26 26 25 25 25 25 25 25 24 24 25 25 25 24 23 22 22 21 20 20 19 19 18 18 18 18 17 17 17 17 17
24 24 24 26 26 26 25 26 26 26 26 25 26 26 26 26 26 26 25 25 25 24 24 24 24 24 24 23 23 22 22 21 20 20 19 19 19 19 19 19 18 18 17 17
25 25 24 24 25 25 26 26 26 26 26 26 26 25 25 25 25 25 25 25 25 25 24 23 23 23 23 23 23 23 23 22 21 21 21 21 20 20 20 20 20 19 19 18
26 26 26 26 25 25 26 26 26 26 26 25 25 24 24 23 24 24 24 24 24 24 24 23 22 23 23 24 23 23 23 23 22 23 22 22 21 22 21 21 21 20 20 19
26 26 26 26 26 26 25 25 25 25 25 24 23 23 23 23 23 23 23 23 23 23 24 23 23 23 24 23 23 23 23 23 24 24 23 23 22 22 22 22 21 21 21 21
24 24 25 25 24 24 23 23 23 23 23 23 22 22 22 22 23 23 23 23 23 22 22 22 22 22 22 23 22 22 23 23 24 24 24 24 24 23 23 23 23 22 22 22
22 22 23 23 23 22 22 22 22 22 21 21 21 21 21 22 23 24 24 23 23 23 23 23 24 24 24 24 24 24 24 24 25 25 24 24 24 24 25 24 24 24 24 24
20 20 20 21 21 22 21 21 21 22 22 22 22 22 22 22 22 23 24 24 24 24 24 24 24 25 26 26 26 25 25 24 24 24 24 24 25 25 25 25 26 26 26 25

GEFSNGP_500_meanwind_270.txt.gz
Wind_Speed
19 18 18 18 17 17 19 19 19 17 16 14 13 12 12 11 11 10 10 9 9 8 8 8 8 8 9 9 9 9 10 10 10 10 10 10 11 11 12 12 12 12 12 12
19 19 18 17 16 17 17 18 18 18 16 15 15 14 12 12 12 11 11 10 10 9 9 9 9 10 10 10 10 10 10 10 10 10 10 10 11 11 11 11 11 12 12 12
20 20 19 18 17 17 17 17 18 17 16 15 15 14 13 13 13 13 13 12 11 11 10 10 10 10 11 10 10 10 10 10 10 10 10 11 11 11 11 11 11 10 11 11
21 21 20 19 19 18 17 17 17 17 16 15 15 14 14 15 15 15 14 14 13 13 12 12 12 11 11 11 11 11 11 11 11 11 11 11 10 10 10 10 9 9 9 10
22 22 21 19 20 19 19 17 17 17 16 15 15 15 15 15 15 15 15 14 14 13 13 13 13 12 12 12 11 11 11 11 11 11 12 12 11 11 11 10 9 9 9 10
23 23 22 21 21 21 20 19 18 18 17 17 16 16 15 15 15 15 15 15 15 15 14 13 13 13 13 12 12 12 12 12 11 11 12 11 11 11 11 10 10 10 10 11
24 23 22 22 23 22 21 19 19 18 18 17 16 15 15 16 16 16 16 16 16 15 15 14 14 14 14 13 13 13 13 13 13 12 12 12 11 11 11 11 11 11 11 11
25 24 22 22 23 23 21 20 19 19 18 17 16 16 16 16 16 16 16 16 16 16 15 15 15 15 14 14 14 14 13 14 13 13 13 12 12 12 11 11 11 11 11 12
27 26 25 24 24 23 22 21 20 20 19 18 18 18 17 17 18 18 17 16 16 17 16 16 16 16 16 15 15 15 14 14 14 14 14 13 12 12 12 12 12 12 11 11
28 27 26 26 25 25 23 22 21 21 21 20 20 19 18 17 17 17 17 16 17 18 17 17 17 18 17 16 16 16 15 15 15 14 14 14 14 13 13 12 11 11 10 11
28 27 27 26 25 25 25 24 23 22 22 22 21 20 20 20 19 19 19 19 19 19 19 18 18 18 19 18 18 17 16 16 15 15 14 14 13 13 13 12 12 11 11 11
28 27 27 27 25 25 25 25 24 23 23 23 23 22 22 22 22 22 21 21 20 20 19 19 19 19 19 19 19 18 17 16 16 15 15 14 14 14 13 13 13 12 12 12
28 27 27 27 26 26 25 25 25 25 24 24 24 24 23 22 23 24 23 22 22 21 20 20 20 20 19 19 19 18 18 17 17 16 15 15 15 15 15 14 14 14 13 13
29 28 27 27 27 27 26 26 26 26 25 25 24 24 23 23 23 24 23 23 22 22 21 21 20 20 19 19 19 19 19 18 18 17 17 16 16 15 15 15 15 14 14 15
28 28 27 27 27 27 26 26 26 26 26 26 26 25 25 25 24 24 24 24 23 23 22 22 21 20 20 20 20 19 20 20 20 19 18 17 16 16 15 15 15 15 15 15
27 28 27 27 26 26 26 26 26 26 25 25 26 26 26 25 25 25 24 24 23 22 22 22 21 21 21 21 21 20 20 20 20 19 18 18 18 17 17 17 16 16 16 16
27 28 27 26 26 25 26 26 26 26 26 26 26 26 27 26 26 25 25 24 24 24 23 23 22 21 21 21 21 21 21 20 19 19 18 18 19 18 18 18 18 17 16 16
27 27 26 26 26 25 25 25 25 25 26 26 27 27 27 27 27 26 25 24 24 24 24 25 24 23 22 22 22 22 22 22 21 20 19 19 19 19 19 18 17 17 17 17
26 26 26 26 26 25 25 25 25 25 25 25 25 25 25 25 26 25 25 25 25 25 25 26 25 24 24 23 23 23 22 22 21 20 20 20 20 19 18 18 18 18 18 18
26 26 25 25 25 25 25 25 26 26 26 26 26 25 25 25 25 25 25 25 25 26 26 26 26 25 25 25 24 23 22 22 21 21 20 20 20 20 20 20 19 19 19 19
27 26 25 24 24 24 24 24 24 25 25 25 25 24 25 25 25 25 25 24 24 25 25 25 24 24 24 24 24 24 23 23 23 22 22 21 21 22 22 21 21 21 20 20
26 26 26 25 24 23 23 23 23 23 23 23 23 23 23 23 24 24 23 23 23 24 24 24 24 23 23 23 24 24 24 23 23 23 23 22 22 21 22 23 23 23 22 22
22 23 25 26 25 24 23 22 22 22 22 22 23 23 23 23 23 23 23 23 23 23 23 23 23 23 23 24 24 24 24 24 23 23 23 22 22 21 22 23 23 24 24 23
22 22 22 23 23 23 23 23 23 23 22 22 23 23 23 22 22 23 23 23 24 23 23 23 23 23 23 23 24 24 23 23 23 23 22 22 22 22 22 22 23 24 24 24
22 22 23 23 22 23 23 23 23 23 23 22 23 23 22 22 22 22 22 23 23 23 23 23 23 23 22 22 23 23 23 23 23 23 23 23 22 22 23 23 23 24 25 25
23 22 21 21 21 21 22 22 22 23 23 22 22 22 22 22 22 22 22 22 22 23 23 23 23 23 23 23 23 24 24 25 25 26 25 25 25 24 24 24 24 24 24 25
24 24 23 23 22 22 22 22 22 22 22 22 22 22 22 22 22 22 22 23 23 23 23 23 23 23 23 24 25 25 25 25 26 26 27 27 26 26 26 26 26 27 27 27

GEFSNGP_500_meanwind_276.txt.gz
Wind_Speed
18 18 18 17 17 17 17 16 16 15 15 15 15 14 14 13 12 12 12 12 12 11 11 12 12 12 12 12 12 12 11 11 11 12 12 12 11 11 11 11 11 12 12 12
19 19 19 19 18 17 17 17 16 16 16 15 15 15 14 13 13 13 13 12 12 12 12 12 12 12 13 13 12 11 11 11 11 11 11 12 11 11 11 11 11 11 11 11
19 19 20 18 18 18 18 17 17 17 16 16 15 15 14 14 13 13 13 13 13 14 13 13 12 13 13 13 12 11 11 11 11 11 11 11 11 11 11 11 11 11 11 11
21 20 19 19 18 18 18 18 18 18 17 15 15 15 15 14 14 14 14 14 14 14 14 13 13 13 13 13 12 12 12 11 12 11 11 11 11 12 12 12 12 11 11 11
22 21 20 20 19 18 18 18 18 17 16 15 15 15 16 15 15 15 15 15 15 14 15 14 14 13 13 13 13 13 12 12 12 12 12 12 12 11 11 11 11 11 12 12
23 23 22 20 20 19 19 19 18 17 17 16 15 14 16 15 16 17 16 16 16 15 15 15 15 14 14 13 13 13 13 13 13 13 12 12 12 12 12 12 12 12 12 13
24 24 23 22 22 20 20 20 19 18 17 17 16 16 16 16 17 17 18 18 18 17 16 16 16 16 15 15 14 14 15 14 14 13 13 13 13 13 13 13 13 13 13 12
25 25 24 24 23 22 21 21 21 20 19 18 18 17 18 18 18 18 18 18 19 19 18 17 17 17 16 16 16 16 15 15 15 14 14 14 13 13 13 13 14 14 13 13
27 27 26 25 25 24 23 23 22 21 20 20 19 19 19 18 18 18 18 18 19 19 18 18 18 17 17 17 17 16 16 16 15 15 15 15 14 14 14 14 15 14 14 14
28 27 27 27 26 25 24 24 23 22 21 21 21 21 20 20 20 20 19 19 20 19 19 19 18 17 17 17 18 18 18 17 16 16 16 16 15 15 15 15 15 15 14 14
28 28 27 27 27 26 25 25 24 24 23 22 23 23 22 22 21 21 21 21 20 20 20 20 19 19 18 18 19 19 19 19 19 18 17 16 16 16 16 16 16 16 15 15
28 28 28 28 28 27 26 25 25 24 24 24 24 24 24 23 23 23 23 22 22 20 20 20 20 20 19 19 19 20 20 20 19 19 18 18 18 17 17 17 16 16 16 17
28 28 28 27 27 26 26 25 26 25 25 25 25 25 25 24 24 24 24 24 23 23 22 22 22 22 22 22 21 21 21 20 20 19 19 19 18 18 18 18 17 17 17 17
27 27 28 27 26 26 26 26 25 25 25 24 24 23 23 24 24 25 25 25 25 25 24 24 24 24 24 24 23 23 22 21 21 21 20 20 20 19 18 18 18 19 18 18
27 27 27 26 26 26 26 26 25 24 24 24 23 23 24 23 23 24 25 25 24 25 25 25 25 26 26 25 24 23 22 22 22 22 22 22 21 20 20 19 19 19 19 19
26 26 26 26 26 25 26 26 25 24 24 23 24 24 24 24 23 23 24 24 25 25 25 25 26 27 26 26 25 24 24 24 23 23 22 22 21 21 21 20 20 20 19 19
25 25 25 25 25 25 25 25 25 24 24 24 24 24 24 24 24 23 24 25 25 26 26 25 26 26 25 25 25 25 24 23 23 22 22 21 21 21 21 21 20 20 19 19
24 24 24 24 25 24 25 25 24 23 24 24 24 24 24 24 23 23 23 24 24 25 25 25 24 24 24 24 24 25 24 24 23 22 22 22 21 21 21 21 21 21 20 20
25 24 24 24 25 25 24 24 24 24 24 23 23 23 23 23 23 23 24 25 25 24 24 24 24 24 24 23 24 24 25 25 24 23 23 22 22 22 22 22 22 21 22 22
24 24 24 24 24 24 24 24 23 24 23 23 23 23 23 24 24 24 24 24 24 24 23 23 23 23 23 24 24 24 24 24 24 24 24 24 24 24 24 23 23 23 23 23
22 23 23 23 23 24 24 24 24 24 24 24 24 23 23 24 23 23 23 23 23 23 23 22 22 22 22 22 23 23 23 23 23 24 24 25 25 25 25 25 25 24 24 24
22 22 23 23 22 23 23 23 23 23 24 24 24 24 24 23 22 22 22 22 22 22 21 21 21 21 21 22 23 23 23 23 24 24 25 25 26 26 26 26 26 26 25 25
21 22 22 22 22 22 23 23 23 23 23 23 23 24 24 24 23 22 22 21 21 21 21 20 20 20 21 22 22 23 23 24 24 25 25 25 25 26 26 26 26 26 26 26
21 21 21 21 21 22 22 22 21 22 22 22 22 22 23 23 23 23 23 22 22 22 22 21 22 22 22 22 23 23 23 24 24 24 24 24 24 24 24 25 25 25 25 25
20 20 21 21 20 20 21 22 22 22 22 22 22 21 22 22 22 22 23 23 22 22 22 22 22 22 22 23 23 23 23 23 24 24 23 24 24 25 24 24 23 24 24 25
19 19 20 20 20 20 21 22 22 23 23 23 22 22 22 22 22 22 23 23 22 22 22 22 22 22 22 23 23 23 23 24 24 24 23 23 23 23 23 23 23 24 24 24
18 18 19 20 20 20 21 21 22 23 24 24 23 23 23 23 24 24 23 23 23 23 23 23 23 24 24 24 23 23 23 23 23 23 24 24 24 23 23 24 24 24 25 25

GEFSNGP_500_meanwind_282.txt.gz
Wind_Speed
18 17 17 19 19 19 19 20 20 19 19 20 21 21 20 19 19 18 16 15 14 13 13 13 13 13 13 13 14 15 15 16 15 15 14 14 14 14 14 13 13 13 12 13
19 18 18 19 19 20 21 22 21 21 20 21 21 20 20 19 19 18 17 16 16 16 16 15 15 15 15 14 14 15 15 15 15 15 14 14 14 14 13 13 14 14 13 13
21 19 20 19 18 20 21 21 20 20 21 21 21 20 20 20 20 19 18 18 18 17 17 16 16 15 15 15 15 15 15 14 15 14 14 14 14 14 14 14 14 13 13 13
23 21 21 20 20 21 21 21 21 22 21 21 22 21 21 22 22 22 21 20 19 19 19 18 17 17 16 15 15 16 15 15 15 14 14 15 14 13 14 14 13 13 14 14
24 23 23 23 22 22 22 22 22 22 21 21 22 22 22 23 23 22 21 21 20 19 19 18 17 17 17 16 16 17 16 16 15 16 16 16 14 13 13 14 14 14 14 14
25 25 25 25 24 23 23 25 24 24 24 23 23 23 23 23 23 22 22 21 20 19 18 18 17 17 17 17 17 17 17 17 17 17 16 15 14 14 15 15 14 14 13 13
28 28 28 26 26 25 25 27 26 25 25 24 24 24 24 23 23 22 21 21 20 20 19 18 18 18 18 18 18 18 17 16 17 17 17 16 15 15 15 15 14 14 14 14
30 30 30 27 25 26 28 28 28 27 27 26 25 25 24 23 23 22 21 21 20 20 19 19 19 19 19 18 18 19 18 18 17 17 17 16 16 16 16 16 16 15 15 15
32 32 30 29 29 28 29 29 28 28 27 26 26 25 24 24 23 23 22 22 21 21 20 20 20 20 20 20 19 19 18 18 17 17 17 17 17 17 17 17 17 17 16 16
32 32 31 29 29 30 30 29 27 27 28 28 27 26 25 25 24 23 23 23 23 22 22 21 21 22 22 21 21 20 18 18 18 18 18 18 18 18 19 19 18 18 17 16
32 33 33 32 31 31 31 31 31 29 28 28 27 27 27 26 25 25 24 23 23 24 24 23 22 22 22 22 21 21 20 20 19 19 19 19 19 18 18 18 18 17 17 17
31 31 32 32 32 31 31 31 31 30 29 28 28 28 27 27 26 25 24 24 24 24 24 23 23 22 22 22 21 21 21 21 21 21 21 20 20 19 19 19 18 17 17 17
31 31 31 31 31 30 30 30 29 30 30 28 28 27 27 26 26 26 25 25 25 24 23 23 23 23 23 22 22 21 21 21 21 22 22 21 20 20 20 21 20 19 19 19
31 31 31 31 31 31 31 30 29 29 29 29 27 26 26 26 27 27 26 26 26 26 24 24 24 24 23 23 23 22 22 22 22 22 22 22 21 21 21 21 21 21 21 21
31 31 31 31 31 30 30 30 29 28 28 28 28 27 26 27 26 26 26 26 26 25 25 24 24 24 24 23 23 22 22 22 22 23 23 22 22 22 21 21 21 21 21 22
30 30 29 29 29 29 29 29 28 28 27 28 28 27 26 25 25 25 25 25 25 25 24 24 24 24 24 23 23 23 24 24 23 23 23 22 22 22 22 22 22 23 23 23
29 28 27 27 27 27 27 27 26 26 27 27 27 26 26 26 25 24 25 25 25 25 25 24 24 24 24 24 24 24 24 24 24 23 23 23 23 22 22 22 23 23 22 22
27 27 26 26 26 26 26 26 25 25 24 24 25 25 25 26 26 25 25 24 24 24 24 24 25 25 25 25 25 25 25 24 24 24 24 24 24 24 24 24 23 23 23 23
24 24 25 25 25 25 25 25 25 25 24 23 24 24 24 25 25 24 24 24 24 24 24 24 24 24 25 25 25 25 26 25 24 23 23 24 24 24 24 24 24 23 23 23
23 23 24 24 24 24 23 23 24 24 24 24 24 25 25 25 25 25 25 25 25 25 24 24 24 24 24 24 24 24 25 24 24 23 23 24 24 24 24 24 23 23 23 24
22 23 23 23 23 23 23 23 23 24 24 24 24 24 25 25 25 25 24 25 25 24 24 24 24 24 23 23 23 23 23 24 24 24 24 24 24 24 24 24 24 24 24 25
21 22 22 23 23 23 22 22 23 24 24 24 24 24 24 24 24 23 23 24 24 24 23 23 23 24 24 23 23 23 23 24 24 24 24 24 24 24 24 24 24 24 24 24
21 21 22 22 22 21 21 21 22 22 23 23 24 23 23 23 23 23 24 24 24 23 22 22 23 23 24 24 23 23 23 24 24 24 25 25 25 24 25 25 25 24 25 25
19 19 19 21 21 21 21 21 21 22 22 22 23 23 23 23 23 23 23 22 23 23 23 22 23 22 22 23 24 24 24 23 24 24 24 24 25 25 25 25 25 26 26 26
19 19 19 20 21 21 21 21 21 22 22 22 22 22 22 22 22 22 22 23 23 23 23 23 23 22 22 23 23 23 23 24 24 25 25 26 26 25 25 26 26 26 26 27
19 20 20 21 21 21 21 21 21 21 20 21 22 22 22 22 22 22 22 22 22 22 22 22 22 23 23 23 23 23 24 24 23 24 25 25 26 26 26 26 25 26 26 26
19 20 20 20 20 20 20 20 21 21 21 20 20 21 21 21 22 22 22 22 21 21 21 22 21 21 22 22 23 23 23 23 24 24 24 25 25 25 25 26 26 26 26 26

GEFSNGP_500_meanwind_288.txt.gz
Wind_Speed
21 19 20 20 19 19 19 19 20 18 18 17 18 18 18 18 17 16 15 14 14 13 11 11 11 11 11 11 11 11 11 11 11 12 11 11 11 12 13 13 13 13 13 14
22 21 22 21 21 21 20 20 20 20 19 19 19 19 18 18 17 17 16 15 14 13 12 11 11 12 12 12 12 12 12 12 12 12 11 11 12 12 13 14 14 14 15 15
23 23 23 23 21 21 22 22 21 21 20 19 19 19 19 19 19 18 18 17 15 14 13 13 12 12 13 14 13 13 13 12 12 12 12 12 13 13 14 15 15 15 15 15
25 25 26 23 22 22 23 23 23 23 22 20 20 20 19 19 20 20 19 18 17 15 14 14 14 14 14 14 14 14 14 14 13 13 14 14 14 14 14 15 15 15 15 14
27 27 27 24 23 24 24 24 24 24 23 22 21 21 21 20 19 19 19 18 18 17 16 16 16 15 16 16 16 15 15 15 15 15 15 15 15 15 15 15 15 15 15 14
28 28 27 24 23 25 25 25 24 24 24 24 22 22 21 21 20 20 19 19 19 19 18 17 17 17 17 18 17 16 16 16 16 16 16 16 16 16 17 16 15 15 15 15
29 28 27 25 25 25 26 25 24 24 24 24 24 24 23 23 23 22 22 21 21 21 19 19 19 19 19 18 17 17 17 17 17 16 16 16 16 17 17 17 16 16 15 15
31 29 28 27 26 26 27 27 26 25 25 25 24 24 25 25 25 25 23 23 23 22 21 21 21 21 21 20 19 18 18 18 18 18 18 17 17 17 17 17 17 16 16 15
32 31 29 28 27 27 28 28 27 27 27 26 26 26 26 25 25 25 24 24 24 24 23 23 23 22 22 21 20 19 19 18 18 18 18 18 18 18 17 17 18 17 16 16
32 31 31 30 30 30 29 29 28 28 27 27 27 27 26 25 24 24 25 25 24 23 23 22 22 22 22 21 21 20 20 19 20 19 19 18 18 18 18 18 18 18 17 17
33 32 33 32 31 30 30 29 30 29 28 28 27 26 26 25 24 24 25 25 24 23 22 22 22 22 22 22 21 21 21 20 20 20 20 19 19 18 18 18 18 18 19 18
32 32 32 32 31 31 30 30 29 28 27 28 28 27 27 26 26 25 25 25 25 25 24 24 24 23 23 23 22 22 22 22 21 21 20 19 19 19 19 19 19 19 19 19
32 32 32 31 30 29 29 29 27 26 26 26 26 26 26 26 25 25 25 24 24 25 24 24 24 24 24 24 24 23 24 24 22 21 21 20 20 19 19 19 19 19 20 20
32 32 30 29 29 29 28 27 27 26 25 24 24 25 24 24 24 24 24 24 24 25 25 24 24 24 24 25 25 25 24 23 23 22 22 21 21 21 21 21 21 21 21 21
30 30 29 29 30 30 30 28 28 27 27 25 24 24 23 23 23 24 24 24 25 25 24 24 24 24 24 24 25 25 24 24 24 23 23 23 22 22 23 23 22 22 22 22
26 28 28 28 28 29 28 28 28 28 27 26 24 24 24 24 23 23 24 25 24 24 25 25 24 25 25 25 26 25 24 24 24 24 24 24 24 24 23 23 23 23 23 23
25 25 25 26 27 28 27 27 27 26 26 25 25 25 25 25 24 23 23 23 24 24 24 24 24 25 25 26 26 25 25 25 24 24 24 24 24 24 25 24 23 23 24 24
24 23 23 25 25 25 26 26 27 26 25 24 23 24 24 23 23 23 23 23 24 25 24 24 24 25 25 25 25 24 25 25 25 25 24 24 24 25 25 25 25 25 25 25
22 23 23 24 24 24 24 25 26 25 24 24 24 23 23 23 22 22 23 23 23 23 23 22 23 23 23 23 24 24 24 24 24 24 24 24 24 24 24 25 26 26 25 25
21 22 22 22 23 24 24 24 24 24 24 23 23 22 21 21 21 21 21 21 21 21 20 21 22 23 23 23 23 23 24 25 25 25 24 24 24 24 25 25 25 25 25 25
21 21 21 20 21 22 22 23 23 23 22 22 22 21 20 19 20 20 21 21 21 20 20 20 20 21 21 22 23 23 24 24 25 25 25 25 26 26 25 25 25 25 25 24
20 20 19 19 20 21 22 22 22 22 23 22 21 20 20 19 19 19 20 20 20 19 19 19 19 20 21 22 22 22 23 23 24 25 25 25 25 25 26 26 26 25 25 24
18 19 19 19 20 20 21 21 21 21 21 21 21 21 20 20 20 19 19 19 19 19 19 19 19 19 19 19 20 21 21 22 23 23 24 23 24 24 25 26 26 25 25 24
16 17 18 20 20 20 21 21 21 20 21 21 22 21 21 20 20 20 19 19 20 20 20 19 19 19 19 19 20 20 21 22 22 22 22 22 22 23 23 24 25 25 25 25
16 17 18 19 20 21 21 22 22 21 21 22 21 21 21 20 20 19 20 19 19 19 19 19 19 19 20 20 20 20 20 21 21 21 22 21 21 22 22 23 23 23 23 24
15 15 16 17 18 20 21 21 21 22 23 22 22 22 21 21 21 21 20 20 19 19 19 19 20 20 21 21 21 20 21 21 21 22 22 22 22 21 22 23 23 23 23 24
17 17 16 16 17 18 19 19 20 20 22 22 22 22 21 21 21 21 21 21 20 20 20 20 21 21 21 21 21 21 21 21 21 21 22 22 22 22 22 23 23 23 23 24